Location: Calvera
(42.3882°N, 0.6137°E)
Time: 20:08:57
(UTC+00:00)

COSMOS 2406 - Pass Details

Date: 28 October 2020
Orbit: 843 x 864 km, 71.0° (Epoch: 23 November)

Event Time Altitude Azimuth Distance (km) Brightness Sun altitude
Exits shadow 04:21:35 56° 280° (W) 999 3.2 -23.6°
Maximum altitude 04:21:58 57° 298° (WNW) 987 3.2 -23.5°
Drops below altitude 10° 04:27:34 10° 17° (NNE) 2,473 5.8 -22.5°
Sets 04:30:04 0° 22° (NNE) 3,414 6.7 -22.0°
